This demonstration page uses our WeatherBlox Daily Observations layout. Learn more.

Left ArrowRight Arrow

44.89941, -97.11507

Hourly Observations for August 21, 2016

Temp ( °F °C ) Dew Point ( °F °C ) Humidity (%) Winds ( mph kmh ) Pressure ( in mb ) Visibility ( mi km ) Precip ( " mm )
12:53 am 00:53 Clear 55 12.8 52 11.1 90 90 WNW 3 6 29.94 1014 10 16 0.00 0.00
1:53 am 01:53 Clear 55 12.8 52 11.1 90 90 WNW 5 7 29.95 1014 10 16 0.00 0.00
2:53 am 02:53 Clear 52 11.1 49 9.4 89 89 Calm 29.95 1014 10 16 0.00 0.00
3:53 am 03:53 Clear 49 9.4 48 8.9 97 97 SSW 3 6 29.95 1014 10 16 0.00 0.00
4:53 am 04:53 Clear 50 10 48 8.9 93 93 Calm 29.96 1014 10 16 0.00 0.00
5:53 am 05:53 Clear 50 10 48 8.9 93 93 S 5 7 29.96 1015 10 16 0.00 0.00
6:53 am 06:53 Sunny 50 10 48 8.9 93 93 WSW 5 7 29.98 1015 10 16 0.00 0.00
7:53 am 07:53 Sunny 54 12.2 51 10.6 90 90 SSW 5 7 30.00 1016 10 16 0.00 0.00
8:53 am 08:53 Sunny 61 16.1 55 12.8 81 81 SW 5 7 30.00 1016 10 16 0.00 0.00
9:53 am 09:53 Sunny 64 17.8 53 11.7 68 68 SW 7 11 30.00 1016 10 16 0.00 0.00
10:53 am 10:53 Sunny 68 20 56 13.3 65 65 W 10 17 30.00 1016 10 16 0.00 0.00
11:53 am 11:53 Sunny 71 21.7 54 12.2 55 55 WSW 12 19 29.98 1015 10 16 0.00 0.00
12:53 pm 12:53 Sunny 73 22.8 52 11.1 48 48 WSW 12 19 29.98 1015 10 16 0.00 0.00
1:53 pm 13:53 Partly Cloudy 72 22.2 51 10.6 48 48 W 6 9 29.97 1015 10 16 0.00 0.00
2:53 pm 14:53 Sunny 75 23.9 51 10.6 43 43 SW 7 11 29.96 1015 10 16 0.00 0.00
3:53 pm 15:53 Sunny 76 24.4 52 11.1 43 43 SW 9 15 29.95 1014 10 16 0.00 0.00
4:53 pm 16:53 Sunny 76 24.4 48 8.9 37 37 SSW 8 13 29.93 1014 10 16 0.00 0.00
5:53 pm 17:53 Sunny 76 24.4 50 10 40 40 SW 9 15 29.93 1014 10 16 0.00 0.00
6:53 pm 18:53 Sunny 74 23.3 53 11.7 48 48 S 8 13 29.93 1014 10 16 0.00 0.00
7:53 pm 19:53 Sunny 71 21.7 55 12.8 57 57 SSE 8 13 29.92 1013 10 16 0.00 0.00
8:53 pm 20:53 Clear 69 20.6 54 12.2 59 59 SE 7 11 29.92 1013 10 16 0.00 0.00
9:53 pm 21:53 Clear 66 18.9 54 12.2 65 65 SSE 8 13 29.93 1014 10 16 0.00 0.00
10:53 pm 22:53 Clear 64 17.8 55 12.8 73 73 SSE 9 15 29.93 1013 10 16 0.00 0.00
11:53 pm 23:53 Clear 63 17.2 54 12.2 73 73 SSE 13 20 29.92 1013 10 16 0.00 0.00

Powered by AerisWeather